| time (UTC) | temp F | wind direction | speed MPH | gust MPH | rain 1hr in | rain 24hr in | rain mn in | humidity % | barometer mb |
| 20260507045821 | 62 | 291 | 0.0 | 0.0 | 0.00 | 0.00 | 0.00 | 72 | 1017.9 |
| 20260507045317 | 62 | 291 | 0.0 | 0.0 | 0.00 | 0.00 | 0.00 | 71 | 1017.8 |
| 20260507044829 | 63 | 291 | 0.0 | 0.0 | 0.00 | 0.00 | 0.00 | 70 | 1017.8 |
| 20260507044321 | 63 | 291 | 0.0 | 0.0 | 0.00 | 0.00 | 0.00 | 70 | 1017.7 |
| 20260507043811 | 63 | 291 | 0.0 | 0.0 | 0.00 | 0.00 | 0.00 | 69 | 1017.7 |
| 20260507043323 | 63 | 291 | 0.0 | 0.0 | 0.00 | 0.00 | 0.00 | 69 | 1017.6 |
| 20260507042814 | 63 | 229 | 0.0 | 0.0 | 0.00 | 0.00 | 0.00 | 69 | 1017.7 |
| 20260507042325 | 64 | 229 | 0.0 | 0.0 | 0.00 | 0.00 | 0.00 | 69 | 1017.6 |
| 20260507041816 | 64 | 229 | 0.0 | 0.0 | 0.00 | 0.00 | 0.00 | 68 | 1017.6 |
| 20260507041311 | 64 | 229 | 0.0 | 0.0 | 0.00 | 0.00 | 0.00 | 68 | 1017.6 |
| 20260507040822 | 63 | 229 | 0.0 | 0.0 | 0.00 | 0.00 | 0.00 | 68 | 1017.5 |
| 20260507040312 | 64 | 229 | 0.0 | 0.0 | 0.00 | 0.00 | 0.00 | 66 | 1017.4 |
| 20260507035824 | 64 | 229 | 0.0 | 0.0 | 0.00 | 0.00 | 0.00 | 66 | 1017.4 |
| 20260507035314 | 64 | 229 | 0.0 | 0.0 | 0.00 | 0.00 | 0.00 | 66 | 1017.4 |
| 20260507034826 | 65 | 229 | 0.0 | 0.0 | 0.00 | 0.00 | 0.00 | 64 | 1017.3 |
| 20260507034317 | 65 | 229 | 0.0 | 0.0 | 0.00 | 0.00 | 0.00 | 64 | 1017.2 |
| 20260507033828 | 65 | 229 | 0.0 | 0.0 | 0.00 | 0.00 | 0.00 | 63 | 1017.2 |
| 20260507033319 | 66 | 229 | 0.0 | 0.0 | 0.00 | 0.00 | 0.00 | 63 | 1017.1 |
| 20260507032829 | 66 | 229 | 0.0 | 0.0 | 0.00 | 0.00 | 0.00 | 62 | 1017.1 |
| 20260507032325 | 66 | 229 | 0.0 | 0.0 | 0.00 | 0.00 | 0.00 | 61 | 1017.0 |
| 20260507031816 | 67 | 229 | 0.0 | 0.0 | 0.00 | 0.00 | 0.00 | 61 | 1017.1 |
| 20260507031348 | 67 | 229 | 0.0 | 2.0 | 0.00 | 0.00 | 0.00 | 60 | 1016.9 |
| 20260507030817 | 68 | 229 | 1.0 | 6.0 | 0.00 | 0.00 | 0.00 | 60 | 1016.8 |
| 20260507030329 | 68 | 219 | 1.0 | 6.0 | 0.00 | 0.00 | 0.00 | 59 | 1016.8 |
| 20260507025821 | 68 | 208 | 1.0 | 4.0 | 0.00 | 0.00 | 0.00 | 59 | 1016.7 |
| 20260507025311 | 68 | 210 | 2.0 | 6.0 | 0.00 | 0.00 | 0.00 | 58 | 1016.6 |
| 20260507024822 | 69 | 207 | 4.0 | 7.0 | 0.00 | 0.00 | 0.00 | 58 | 1016.6 |
| 20260507024333 | 69 | 207 | 3.0 | 7.0 | 0.00 | 0.00 | 0.00 | 57 | 1016.5 |
| 20260507023823 | 69 | 229 | 3.0 | 6.0 | 0.00 | 0.00 | 0.00 | 57 | 1016.5 |
| 20260507023334 | 70 | 236 | 2.0 | 7.0 | 0.00 | 0.00 | 0.00 | 56 | 1016.3 |
| 20260507022824 | 70 | 200 | 3.0 | 8.0 | 0.00 | 0.00 | 0.00 | 56 | 1016.3 |
| 20260507022318 | 70 | 233 | 4.0 | 10.0 | 0.00 | 0.00 | 0.00 | 55 | 1016.2 |
| 20260507021829 | 71 | 215 | 5.0 | 10.0 | 0.00 | 0.00 | 0.00 | 54 | 1016.2 |
| 20260507021341 | 71 | 219 | 5.0 | 9.0 | 0.00 | 0.00 | 0.00 | 54 | 1016.1 |
| 20260507020830 | 72 | 220 | 5.0 | 10.0 | 0.00 | 0.00 | 0.00 | 53 | 1016.0 |
| 20260507020321 | 72 | 215 | 6.0 | 10.0 | 0.00 | 0.00 | 0.00 | 52 | 1015.9 |
| 20260507015852 | 73 | 193 | 5.0 | 11.0 | 0.00 | 0.00 | 0.00 | 52 | 1015.8 |
| 20260507015323 | 73 | 194 | 7.0 | 11.0 | 0.00 | 0.00 | 0.00 | 51 | 1015.8 |
| 20260507014813 | 74 | 233 | 5.0 | 11.0 | 0.00 | 0.00 | 0.00 | 50 | 1015.6 |
| 20260507014325 | 74 | 245 | 5.0 | 10.0 | 0.00 | 0.00 | 0.00 | 49 | 1015.7 |
| 20260507013837 | 75 | 214 | 5.0 | 10.0 | 0.00 | 0.00 | 0.00 | 48 | 1015.7 |
| 20260507013311 | 75 | 233 | 6.0 | 10.0 | 0.00 | 0.00 | 0.00 | 47 | 1015.5 |
| 20260507012822 | 76 | 209 | 4.0 | 9.0 | 0.00 | 0.00 | 0.00 | 47 | 1015.5 |
| 20260507012312 | 76 | 217 | 4.0 | 9.0 | 0.00 | 0.00 | 0.00 | 45 | 1015.5 |
| 20260507011823 | 77 | 206 | 3.0 | 9.0 | 0.00 | 0.00 | 0.00 | 45 | 1015.4 |
| 20260507011315 | 77 | 233 | 3.0 | 9.0 | 0.00 | 0.00 | 0.00 | 43 | 1015.4 |
| 20260507010847 | 77 | 272 | 4.0 | 7.0 | 0.00 | 0.00 | 0.00 | 43 | 1015.3 |
| 20260507010317 | 77 | 255 | 2.0 | 11.0 | 0.00 | 0.00 | 0.00 | 42 | 1015.3 |
| 20260507005830 | 78 | 285 | 3.0 | 11.0 | 0.00 | 0.00 | 0.00 | 42 | 1015.3 |
| 20260507005342 | 78 | 262 | 4.0 | 8.0 | 0.00 | 0.00 | 0.00 | 41 | 1015.2 |
| 20260507004811 | 78 | 213 | 3.0 | 8.0 | 0.00 | 0.00 | 0.00 | 40 | 1015.2 |
| 20260507004321 | 79 | 215 | 2.0 | 8.0 | 0.00 | 0.00 | 0.00 | 40 | 1015.2 |
| 20260507003817 | 79 | 236 | 2.0 | 6.0 | 0.00 | 0.00 | 0.00 | 39 | 1015.2 |
| 20260507003328 | 78 | 285 | 4.0 | 8.0 | 0.00 | 0.00 | 0.00 | 34 | 1015.2 |
| 20260507002819 | 78 | 281 | 4.0 | 8.0 | 0.00 | 0.00 | 0.00 | 33 | 1015.1 |
| 20260507002329 | 79 | 305 | 2.0 | 8.0 | 0.00 | 0.00 | 0.00 | 33 | 1015.1 |
| 20260507001819 | 78 | 308 | 3.0 | 12.0 | 0.00 | 0.00 | 0.00 | 33 | 1015.1 |
| 20260507001310 | 79 | 245 | 4.0 | 12.0 | 0.00 | 0.00 | 0.00 | 33 | 1014.9 |
| 20260507000841 | 79 | 307 | 4.0 | 9.0 | 0.00 | 0.00 | 0.00 | 32 | 1014.9 |
| 20260507000331 | 79 | 208 | 4.0 | 9.0 | 0.00 | 0.00 | 0.00 | 33 | 1014.9 |
| 20260506235821 | 79 | 303 | 3.0 | 11.0 | 0.00 | 0.00 | 0.00 | 33 | 1014.8 |
| 20260506235316 | 78 | 257 | 5.0 | 11.0 | 0.00 | 0.00 | 0.00 | 33 | 1014.8 |
| 20260506234827 | 78 | 314 | 5.0 | 11.0 | 0.00 | 0.00 | 0.00 | 34 | 1014.8 |
| 20260506234319 | 79 | 342 | 5.0 | 10.0 | 0.00 | 0.00 | 0.00 | 33 | 1014.8 |
| 20260506233850 | 78 | 323 | 5.0 | 11.0 | 0.00 | 0.00 | 0.00 | 33 | 1014.8 |
| 20260506233320 | 79 | 306 | 6.0 | 11.0 | 0.00 | 0.00 | 0.00 | 33 | 1014.8 |
| 20260506232812 | 79 | 296 | 4.0 | 11.0 | 0.00 | 0.00 | 0.00 | 33 | 1014.8 |
| 20260506232324 | 79 | 263 | 2.0 | 15.0 | 0.00 | 0.00 | 0.00 | 34 | 1014.7 |
| 20260506231835 | 79 | 315 | 5.0 | 15.0 | 0.00 | 0.00 | 0.00 | 33 | 1014.8 |
| 20260506231325 | 79 | 289 | 3.0 | 8.0 | 0.00 | 0.00 | 0.00 | 33 | 1014.8 |
| 20260506230816 | 79 | 300 | 4.0 | 9.0 | 0.00 | 0.00 | 0.00 | 33 | 1014.9 |
| 20260506230327 | 80 | 298 | 2.0 | 9.0 | 0.00 | 0.00 | 0.00 | 33 | 1014.9 |
| 20260506225838 | 79 | 216 | 1.0 | 6.0 | 0.00 | 0.00 | 0.00 | 33 | 1014.9 |
| 20260506225312 | 80 | 226 | 3.0 | 6.0 | 0.00 | 0.00 | 0.00 | 32 | 1015.0 |
| 20260506224823 | 79 | 231 | 0.0 | 4.0 | 0.00 | 0.00 | 0.00 | 33 | 1015.0 |
| 20260506224314 | 80 | 276 | 2.0 | 6.0 | 0.00 | 0.00 | 0.00 | 32 | 1015.1 |
| 20260506223825 | 79 | 215 | 2.0 | 6.0 | 0.00 | 0.00 | 0.00 | 33 | 1015.2 |
| 20260506223317 | 79 | 224 | 2.0 | 6.0 | 0.00 | 0.00 | 0.00 | 34 | 1015.3 |
| 20260506222849 | 78 | 231 | 1.0 | 6.0 | 0.00 | 0.00 | 0.00 | 34 | 1015.2 |
| 20260506222318 | 79 | 266 | 2.0 | 6.0 | 0.00 | 0.00 | 0.00 | 33 | 1015.3 |
| 20260506221830 | 79 | 130 | 2.0 | 6.0 | 0.00 | 0.00 | 0.00 | 34 | 1015.4 |
| 20260506221320 | 78 | 247 | 1.0 | 5.0 | 0.00 | 0.00 | 0.00 | 34 | 1015.4 |
| 20260506220815 | 77 | 273 | 1.0 | 7.0 | 0.00 | 0.00 | 0.00 | 34 | 1015.4 |
| 20260506220326 | 78 | 266 | 2.0 | 9.0 | 0.00 | 0.00 | 0.00 | 34 | 1015.6 |
| 20260506215817 | 77 | 221 | 3.0 | 9.0 | 0.00 | 0.00 | 0.00 | 34 | 1015.6 |
| 20260506215349 | 78 | 212 | 2.0 | 7.0 | 0.00 | 0.00 | 0.00 | 34 | 1015.7 |
| 20260506214820 | 77 | 222 | 2.0 | 7.0 | 0.00 | 0.00 | 0.00 | 35 | 1015.9 |
| 20260506214351 | 76 | 211 | 2.0 | 7.0 | 0.00 | 0.00 | 0.00 | 36 | 1016.0 |
| 20260506213821 | 76 | 313 | 4.0 | 7.0 | 0.00 | 0.00 | 0.00 | 35 | 1016.0 |
| 20260506213312 | 76 | 303 | 3.0 | 7.0 | 0.00 | 0.00 | 0.00 | 34 | 1016.1 |
| 20260506212823 | 77 | 12 | 2.0 | 5.0 | 0.00 | 0.00 | 0.00 | 34 | 1016.1 |
| 20260506212334 | 76 | 264 | 1.0 | 6.0 | 0.00 | 0.00 | 0.00 | 35 | 1016.2 |
| 20260506211824 | 76 | 162 | 3.0 | 6.0 | 0.00 | 0.00 | 0.00 | 35 | 1016.3 |
| 20260506211320 | 75 | 219 | 2.0 | 7.0 | 0.00 | 0.00 | 0.00 | 35 | 1016.4 |
| 20260506210831 | 75 | 282 | 4.0 | 7.0 | 0.00 | 0.00 | 0.00 | 37 | 1016.3 |
| 20260506210321 | 74 | 44 | 2.0 | 6.0 | 0.00 | 0.00 | 0.00 | 36 | 1016.3 |
| 20260506205811 | 74 | 288 | 2.0 | 6.0 | 0.00 | 0.00 | 0.00 | 37 | 1016.5 |
| 20260506205323 | 74 | 325 | 2.0 | 4.0 | 0.00 | 0.00 | 0.00 | 36 | 1016.6 |
| 20260506204814 | 74 | 320 | 1.0 | 4.0 | 0.00 | 0.00 | 0.00 | 36 | 1016.6 |
| 20260506204346 | 73 | 214 | 1.0 | 6.0 | 0.00 | 0.00 | 0.00 | 37 | 1016.6 |
| 20260506203815 | 72 | 207 | 3.0 | 6.0 | 0.00 | 0.00 | 0.00 | 38 | 1016.7 |
| 20260506203311 | 73 | 315 | 4.0 | 7.0 | 0.00 | 0.00 | 0.00 | 37 | 1016.8 |
| 20260506202823 | 73 | 276 | 2.0 | 7.0 | 0.00 | 0.00 | 0.00 | 38 | 1016.9 |
| 20260506202314 | 73 | 36 | 3.0 | 5.0 | 0.00 | 0.00 | 0.00 | 37 | 1016.9 |
| 20260506201826 | 73 | 295 | 2.0 | 4.0 | 0.00 | 0.00 | 0.00 | 37 | 1016.9 |
| 20260506201318 | 73 | 264 | 1.0 | 4.0 | 0.00 | 0.00 | 0.00 | 38 | 1017.1 |
| 20260506200829 | 72 | 279 | 2.0 | 4.0 | 0.00 | 0.00 | 0.00 | 40 | 1017.2 |